Location: Unspecified
(49.9820°N, 20.4363°E)
Time: 04:34:36
(UTC+02:00)

Vanguard 3 - Pass Details

Date: 19 May 2026
Orbit: 507 x 3204 km, 33.3° (Epoch: 6 June)

Event Time Altitude Azimuth Distance (km) Brightness Sun altitude
Rises 11:10:47 0° 197° (SSW) 5,826 11.8 55.5°
Reaches altitude 10° 11:15:31 10° 184° (S) 5,215 11.8 56.0°
Maximum altitude 11:26:50 23° 139° (SE) 4,829 12.2 56.9°
Drops below altitude 10° 11:39:54 10° 97° (E) 6,126 12.0 57.9°
Sets 11:46:04 0° 86° (E) 7,065 12.1 58.3°
